Home > Weather > Nienburg (Weser) > Past weeks

Flag for Germany Weather for the Past 2 Weeks in Nienburg (Weser), Lower Saxony, Germany

Now
57 °F

Refreshingly cool.


Feels Like: 57 °F
Forecast: 41 / 63 °F
Wind: 5 mph from Northwest

Location: Wunstorf Airport

Current Time: May 4, 2016 at 9:53:52 PM

Latest Report: May 4, 2016 at 8:20 PM


Visibility: 6 mi

Pressure: 30.36 "Hg

Humidity: 36%

Dew Point: 30 °F

Location of Nienburg (Weser)Location

Historic Weather in Nienburg (Weser) — Graph

°F

Nienburg (Weser) Temperature Yesterday

Maximum temperature yesterday: 55 °F (at 2:20 PM)
Minimum temperature yesterday: 45 °F (at 11:20 PM)
Average temperature yesterday: 51 °F

High & Low Weather Summary for the Past Weeks

 TemperatureHumidityPressure
High68 °F (May 2, 4:20 PM)100% (Apr 30, 5:20 AM)30.45 "Hg (Apr 30, 5:20 AM)
Low32 °F (Apr 21, 5:20 AM)26% (May 2, 5:20 PM)29.39 "Hg (Apr 26, 1:20 PM)
Average45 °F70%30.01 "Hg
* Reported Apr 19 7:20 PM — May 4 7:20 PM, Nienburg (Weser), Weather by CustomWeather, © 2016

Note: Actual official high and low records may vary slightly from our data, if they occured in-between our weather recording intervals... More about our weather records

Advertising

Nienburg (Weser) Weather History for the Previous 24 Hours

Scroll right to see more
 ConditionsComfort  
Time TempWeatherWind HumidityBarometerVisibility
7:20 PM
Wed, May 4
59 °FPassing clouds.3 mph31%30.36 "HgN/A
6:20 PM59 °FPassing clouds.6 mph34%30.36 "HgN/A
5:20 PM57 °FScattered clouds.7 mph36%30.36 "HgN/A
4:20 PM57 °FScattered clouds.3 mph39%30.36 "HgN/A
3:20 PM55 °FScattered clouds.8 mph38%30.39 "HgN/A
2:20 PM57 °FScattered clouds.5 mph39%30.39 "HgN/A
1:20 PM54 °FScattered clouds.3 mph47%30.39 "HgN/A
12:20 PM54 °FScattered clouds.5 mph47%30.39 "HgN/A
11:20 AM52 °FScattered clouds.6 mph58%30.39 "HgN/A
10:20 AM50 °FScattered clouds.5 mph67%30.39 "HgN/A
9:20 AM46 °FScattered clouds.5 mph76%30.39 "HgN/A
8:20 AM45 °FScattered clouds.5 mph87%30.39 "HgN/A
7:20 AM39 °FPassing clouds.3 mph87%30.39 "Hg5 mi
6:20 AM37 °FPassing clouds.5 mph93%30.36 "HgN/A
5:20 AM34 °FFog.3 mph93%30.36 "HgN/A
4:20 AM39 °FChilly.3 mph87%30.33 "Hg4 mi
3:20 AM39 °FChilly.6 mph87%30.33 "Hg4 mi
2:20 AM41 °FQuite cool.6 mph87%30.33 "Hg4 mi
1:20 AM41 °FQuite cool.1 mph87%30.33 "Hg4 mi
12:20 AM43 °FQuite cool.5 mph81%30.33 "Hg4 mi
11:20 PM
Tue, May 3
45 °FQuite cool.6 mph76%30.30 "Hg4 mi
10:20 PM46 °FCool.8 mph71%30.27 "Hg4 mi
9:20 PM50 °FCool.9 mph62%30.24 "Hg4 mi
Weather by CustomWeather, © 2016

See weather overviewHow to use our weather pages